Location: Bellflower
(33.8817°N, 118.1170°W)
Time: 14:05:25
(UTC+00:00)

Cosmos 389 Rocket - Pass Details

Date: 23 November 2020
Orbit: 442 x 473 km, 81.1° (Epoch: 21 January)

Event Time Altitude Azimuth Distance (km) Brightness Sun altitude
Exits shadow 13:05:03 38° 334° (NNW) 697 3.0 -18.1°
Maximum altitude 13:06:11 69° 264° (W) 487 2.3 -17.8°
Drops below altitude 10° 13:09:37 10° 180° (S) 1,584 5.3 -17.1°
Sets 13:11:42 0° 178° (S) 2,458 6.4 -16.7°
